IZ1KGA-1 Weather Reports


time (UTC)temp
F
wind
direction
speed
knots
gust
knots
rain 1hr
in
rain 24hr
in
rain mn
in
humidity
%
barometer
mb
20260505102056 52 0 0.0 0.0 0.00 0.57 0.23 87 1014.6
20260505101601 52 0 0.0 0.0 0.00 0.57 0.23 86 1014.6
20260505101056 52 0 0.0 0.0 0.00 0.57 0.23 87 1014.8
20260505100558 52 0 0.0 0.0 0.00 0.57 0.23 87 1014.7
20260505100100 52 0 0.0 0.0 0.00 0.57 0.23 87 1014.6
20260505095556 52 0 0.0 0.0 0.00 0.57 0.23 88 1014.6
20260505095059 52 0 0.0 0.0 0.00 0.57 0.23 88 1014.7
20260505094605 52 0 0.0 2.6 0.00 0.57 0.23 88 1014.6
20260505094057 52 0 0.0 3.5 0.00 0.57 0.23 89 1014.6
20260505093557 52 86 0.0 3.5 0.00 0.57 0.23 89 1014.6
20260505093058 52 0 0.0 2.6 0.00 0.57 0.23 89 1014.6
20260505092556 52 0 0.0 2.6 0.00 0.57 0.23 89 1014.6
20260505092056 52 0 0.0 2.6 0.00 0.57 0.23 89 1014.6
20260505091607 52 0 0.0 3.5 0.00 0.57 0.23 89 1014.6
20260505091056 51 0 0.0 4.3 0.00 0.57 0.23 89 1014.7
20260505090556 51 0 0.0 4.3 0.00 0.57 0.23 88 1014.6
20260505085558 51 0 0.0 0.0 0.00 0.56 0.22 88 1014.6
20260505085055 51 0 0.0 0.0 0.00 0.56 0.22 88 1014.7
20260505084606 51 0 0.0 0.0 0.00 0.56 0.22 88 1014.5
20260505084055 51 0 0.0 0.0 0.00 0.56 0.22 89 1014.5
20260505083558 51 0 0.0 0.0 0.00 0.56 0.22 89 1014.3
20260505083107 51 0 0.0 0.0 0.00 0.56 0.22 89 1014.3
20260505082555 51 0 0.0 0.0 0.00 0.56 0.22 89 1014.3
20260505082056 51 0 0.0 0.0 0.00 0.56 0.22 89 1014.3
20260505081556 51 0 0.0 0.0 0.00 0.56 0.22 90 1014.3
20260505081148 51 0 0.0 0.0 0.00 0.56 0.22 90 1014.1
20260505080556 51 0 0.0 0.0 0.00 0.56 0.22 90 1014.1
20260505080059 51 0 0.0 0.0 0.00 0.56 0.22 90 1014.0
20260505075556 51 0 0.0 0.0 0.00 0.56 0.22 90 1014.0
20260505075055 50 0 0.0 0.0 0.00 0.56 0.22 91 1014.0
20260505074556 50 0 0.0 0.0 0.00 0.56 0.22 91 1014.0
20260505074056 50 0 0.0 0.0 0.00 0.56 0.22 91 1014.0
20260505073555 50 0 0.0 0.0 0.00 0.56 0.22 91 1014.1
20260505073103 50 0 0.0 0.0 0.00 0.56 0.22 91 1014.0
20260505072600 50 0 0.0 0.0 0.00 0.56 0.22 91 1014.0
20260505072058 50 0 0.0 0.0 0.00 0.56 0.22 91 1014.1
20260505071600 50 0 0.0 0.0 0.00 0.56 0.22 91 1014.3
20260505071058 50 0 0.0 0.0 0.00 0.56 0.22 91 1014.1
20260505070559 50 0 0.0 0.0 0.00 0.56 0.22 92 1014.1
20260505070106 50 0 0.0 0.0 0.00 0.56 0.22 92 1014.1
20260505065556 49 0 0.0 0.0 0.00 0.56 0.22 92 1014.1
20260505065058 49 0 0.0 0.0 0.00 0.56 0.22 92 1014.0
20260505064559 49 0 0.0 3.5 0.00 0.56 0.22 91 1014.1
20260505064057 49 0 0.0 3.5 0.00 0.56 0.22 91 1014.2
20260505063557 49 0 0.9 3.5 0.00 0.56 0.22 91 1014.1
20260505063059 49 0 0.0 3.5 0.00 0.56 0.22 91 1014.2
20260505062559 49 311 0.0 0.0 0.00 0.56 0.22 91 1014.2
20260505062101 49 0 0.0 0.0 0.00 0.56 0.22 91 1014.2
20260505061630 49 0 0.0 0.0 0.00 0.56 0.22 91 1014.3
20260505061056 49 0 0.0 0.0 0.00 0.56 0.22 91 1014.2
20260505060556 49 0 0.0 0.0 0.00 0.56 0.22 91 1014.2
20260505060100 49 0 0.0 2.6 0.00 0.56 0.22 91 1014.2
20260505055557 49 0 0.0 2.6 0.00 0.56 0.22 91 1014.2
20260505055057 49 0 0.0 3.5 0.00 0.56 0.22 91 1014.1
20260505054557 49 0 0.0 5.2 0.00 0.56 0.22 91 1014.2
20260505054057 49 0 0.9 5.2 0.00 0.56 0.22 92 1014.2
20260505053557 49 0 0.0 0.0 0.00 0.56 0.22 91 1014.1
20260505053056 49 0 0.0 3.5 0.01 0.56 0.22 91 1014.1
20260505052557 49 0 0.0 3.5 0.02 0.56 0.22 91 1014.2
20260505052058 49 0 0.0 3.5 0.03 0.56 0.22 91 1014.3
20260505051557 49 0 0.0 0.0 0.03 0.56 0.22 91 1014.3
20260505051057 49 0 0.0 0.0 0.04 0.56 0.22 91 1014.3
20260505050556 49 0 0.0 0.0 0.06 0.56 0.22 91 1014.3
20260505041604 49 0 0.0 0.0 0.09 0.52 0.18 91 1014.8
20260505041057 49 0 0.0 0.0 0.09 0.51 0.18 91 1014.9
20260505040556 49 0 0.0 0.0 0.08 0.50 0.16 91 1015.0
20260505035557 49 0 0.0 0.0 0.07 0.48 0.14 91 1015.3
20260505035057 49 0 0.0 2.6 0.07 0.48 0.14 91 1015.3
20260505034602 49 0 0.0 2.6 0.07 0.47 0.13 91 1015.2
20260505034059 49 0 0.0 2.6 0.07 0.46 0.12 91 1015.2
20260505033557 49 0 0.0 0.0 0.07 0.45 0.11 91 1015.1
20260505033104 49 0 0.0 0.0 0.07 0.44 0.11 91 1015.0
20260505032557 49 0 0.0 0.0 0.07 0.44 0.10 91 1015.0
20260505032058 49 0 0.0 0.0 0.07 0.44 0.10 91 1014.9
20260505031558 49 0 0.0 0.0 0.07 0.43 0.09 91 1014.9
20260505031056 49 0 0.0 0.0 0.07 0.42 0.08 91 1015.1
20260505030558 49 0 0.0 0.0 0.06 0.41 0.07 91 1015.2
20260505030057 49 0 0.0 0.0 0.05 0.40 0.07 91 1015.3
20260505025558 49 0 0.0 0.0 0.06 0.40 0.07 91 1015.3
20260505025056 49 0 0.0 0.0 0.05 0.40 0.06 91 1015.3
20260505024558 49 0 0.0 0.0 0.04 0.39 0.05 91 1015.2
20260505024057 49 0 0.0 0.0 0.03 0.38 0.04 91 1015.2
20260505023557 49 0 0.0 0.0 0.03 0.37 0.03 91 1015.3
20260505023107 49 0 0.0 0.0 0.02 0.37 0.03 91 1015.2
20260505022557 49 0 0.0 0.0 0.02 0.37 0.03 91 1015.1
20260505022059 49 0 0.0 0.0 0.01 0.36 0.02 91 1015.2
20260505021556 49 0 0.0 0.0 0.01 0.36 0.02 91 1015.1
20260505021056 49 0 0.0 0.0 0.00 0.35 0.01 91 1015.1
20260505020557 50 0 0.0 0.0 0.00 0.35 0.01 91 1015.0
20260505020137 50 0 0.0 0.0 0.00 0.35 0.01 91 1015.1
20260505015558 49 0 0.0 0.0 0.00 0.34 0.00 91 1015.0
20260505015057 49 0 0.0 0.0 0.00 0.34 0.00 91 1015.0
20260505014557 49 0 0.0 2.6 0.00 0.34 0.00 90 1015.0
20260505014056 49 0 0.0 4.3 0.00 0.34 0.00 91 1015.1
20260505013556 49 0 0.0 5.2 0.00 0.34 0.00 90 1015.1
20260505013058 49 0 2.6 5.2 0.00 0.34 0.00 90 1015.2
20260505012556 50 0 0.0 0.0 0.00 0.34 0.00 91 1015.2
20260505012055 50 0 0.0 3.5 0.00 0.34 0.00 91 1015.3
20260505011602 50 0 0.0 3.5 0.00 0.34 0.00 91 1015.4
20260505011059 50 0 0.0 0.0 0.00 0.34 0.00 91 1015.4
20260505010557 50 0 0.0 0.0 0.00 0.34 0.00 91 1015.6
20260505010106 50 0 0.0 0.0 0.00 0.34 0.00 90 1015.5
20260505005557 50 0 0.0 0.0 0.00 0.34 0.00 90 1015.6
20260505005059 50 0 0.0 0.0 0.00 0.33 0.00 90 1015.8
20260505004600 50 0 0.0 0.0 0.00 0.33 0.00 90 1015.8
20260505004055 50 0 0.0 0.0 0.00 0.33 0.00 90 1016.2
20260505003556 50 0 0.0 0.0 0.00 0.33 0.00 90 1016.4
20260505003054 50 0 0.0 0.0 0.00 0.33 0.00 90 1016.6
20260505002557 50 0 0.0 0.0 0.00 0.33 0.00 90 1016.6
20260505002059 50 0 0.0 0.0 0.00 0.33 0.00 90 1016.8
20260505001555 50 0 0.0 0.0 0.00 0.33 0.00 90 1016.8
20260505001056 50 0 0.0 0.0 0.00 0.33 0.00 90 1016.9
20260505000557 50 0 0.0 0.0 0.00 0.33 0.00 90 1017.0
20260505000107 50 0 0.0 0.0 0.00 0.33 0.00 90 1017.1
20260504235556 50 0 0.0 0.0 0.00 0.33 0.00 90 1017.1
20260504235055 50 0 0.0 0.0 0.00 0.33 0.00 90 1017.2
20260504234611 50 0 0.0 0.0 0.00 0.33 0.00 90 1017.2
20260504234100 50 0 0.0 4.3 0.00 0.33 0.00 90 1017.2
20260504233557 50 0 0.0 4.3 0.00 0.33 0.00 90 1017.3
20260504233058 50 207 0.0 3.5 0.00 0.33 0.00 90 1017.2
20260504232555 50 0 0.0 6.1 0.00 0.33 0.00 90 1017.2
20260504232059 50 0 0.9 6.1 0.00 0.33 0.00 90 1017.3
20260504231556 50 266 0.0 3.5 0.00 0.33 0.00 90 1017.3
20260504231056 50 0 0.0 0.0 0.00 0.33 0.00 90 1017.5
20260504230556 50 0 0.0 0.0 0.00 0.33 0.00 90 1017.5
20260504230056 50 0 0.0 0.0 0.00 0.33 0.00 90 1017.7
20260504225557 50 0 0.0 0.0 0.00 0.33 0.00 90 1017.8
20260504225057 50 0 0.0 1.7 0.00 0.33 0.00 90 1018.0
20260504224604 50 0 0.0 1.7 0.00 0.33 0.00 90 1018.0
20260504224056 50 0 0.0 0.0 0.00 0.33 0.00 90 1018.0
20260504223556 50 0 0.0 0.0 0.00 0.33 0.00 90 1018.0
20260504223055 50 0 0.0 0.0 0.00 0.33 0.00 90 1018.1
20260504222553 50 0 0.0 0.0 0.00 0.33 0.00 90 1018.2
20260504222101 50 0 0.0 0.0 0.00 0.33 0.00 90 1018.0
20260504221557 50 0 0.0 0.0 0.00 0.33 0.00 90 1018.1
20260504221056 50 0 0.0 0.0 0.00 0.33 0.00 90 1018.2
20260504220557 50 0 0.0 3.5 0.00 0.33 0.00 90 1018.3
20260504220104 50 0 0.0 6.1 0.00 0.33 0.00 90 1018.5
20260504215559 50 285 0.9 7.0 0.01 0.33 0.33 90 1018.5
20260504215056 50 304 2.6 7.0 0.01 0.33 0.33 90 1018.6
20260504214600 50 331 0.0 5.2 0.02 0.33 0.33 89 1018.6
20260504214056 50 0 0.0 0.0 0.03 0.33 0.33 89 1018.6
20260504213558 50 0 0.0 0.0 0.03 0.33 0.33 89 1018.8
20260504213111 50 0 0.0 0.0 0.03 0.33 0.33 89 1018.8
20260504212556 50 0 0.0 0.0 0.03 0.33 0.33 89 1018.9
20260504212057 50 0 0.0 0.0 0.04 0.33 0.33 89 1018.9
20260504211556 50 0 0.0 0.0 0.03 0.33 0.33 89 1018.9
20260504211056 50 0 0.0 0.0 0.03 0.33 0.33 89 1019.0
20260504210558 50 0 0.0 0.0 0.04 0.33 0.33 89 1019.1
20260504210105 50 0 0.0 0.0 0.04 0.33 0.33 89 1019.1
20260504205559 50 0 0.0 2.6 0.04 0.32 0.32 89 1019.2
20260504205059 50 0 0.0 2.6 0.05 0.32 0.32 89 1019.2
20260504204605 50 0 0.0 0.0 0.04 0.31 0.31 89 1019.3
20260504204056 50 0 0.0 0.0 0.04 0.30 0.30 89 1019.3
20260504203559 50 0 0.0 0.0 0.05 0.29 0.29 89 1019.3
20260504203058 50 0 0.0 0.0 0.06 0.29 0.29 89 1019.4
20260504202557 50 0 0.0 0.0 0.07 0.29 0.29 89 1019.2
20260504202058 50 0 0.0 0.0 0.07 0.29 0.29 88 1019.2
20260504201559 51 0 0.0 0.0 0.08 0.29 0.29 89 1019.3
20260504201058 51 0 0.0 0.0 0.09 0.29 0.29 89 1019.4
20260504200557 51 0 0.0 0.0 0.09 0.28 0.28 89 1019.4
20260504200056 51 0 0.0 0.0 0.09 0.28 0.28 89 1019.4
20260504195558 51 0 0.0 0.0 0.09 0.27 0.27 88 1019.2
20260504195056 51 0 0.0 0.0 0.09 0.26 0.26 88 1019.3
20260504194600 51 0 0.0 0.0 0.10 0.26 0.26 88 1019.2
20260504194059 51 0 0.0 0.0 0.10 0.25 0.25 88 1019.0
20260504193559 51 0 0.0 0.0 0.09 0.24 0.24 88 1019.1
20260504193112 51 0 0.0 0.0 0.09 0.23 0.23 88 1019.1
20260504192556 51 0 0.0 0.0 0.07 0.22 0.22 88 1019.1
20260504192100 51 0 0.0 0.0 0.08 0.21 0.21 88 1019.1
20260504191558 51 0 0.0 4.3 0.07 0.20 0.20 88 1019.0
20260504191057 51 0 0.9 4.3 0.07 0.19 0.19 88 1018.9
20260504190556 51 288 0.0 4.3 0.07 0.18 0.18 88 1019.1
20260504190108 52 0 0.0 0.0 0.07 0.18 0.18 88 1019.0
20260504185556 52 0 0.0 0.0 0.08 0.18 0.18 87 1018.9
20260504185058 52 0 0.0 0.0 0.08 0.17 0.17 87 1019.0
20260504184557 52 0 0.0 0.0 0.08 0.16 0.16 87 1019.0
20260504184059 52 0 0.0 0.0 0.07 0.15 0.15 87 1018.9
20260504183556 52 0 0.0 0.0 0.07 0.14 0.14 87 1019.0
20260504183102 52 0 0.0 0.0 0.07 0.14 0.14 86 1018.9
20260504182555 52 0 0.0 4.3 0.07 0.14 0.14 86 1018.9
20260504182058 52 0 0.0 4.3 0.07 0.12 0.12 86 1018.9
20260504181558 52 292 1.7 4.3 0.08 0.12 0.12 85 1018.9
20260504181059 52 294 1.7 4.3 0.09 0.12 0.12 85 1019.0
20260504180602 53 0 0.9 3.5 0.08 0.11 0.11 84 1018.9
20260504180132 53 0 0.0 4.3 0.07 0.10 0.10 85 1019.0
20260504175559 53 0 0.0 4.3 0.07 0.09 0.09 85 1019.0
20260504175058 53 297 0.0 3.5 0.07 0.08 0.08 84 1018.9
20260504174559 53 0 0.0 7.0 0.06 0.07 0.07 83 1019.0
20260504174059 54 302 0.9 7.0 0.06 0.07 0.07 84 1018.9
20260504173558 54 0 0.9 7.0 0.05 0.07 0.07 84 1018.9
20260504173058 55 288 0.0 0.0 0.06 0.07 0.07 84 1018.8
20260504172558 55 0 0.0 0.0 0.05 0.06 0.06 84 1018.8
20260504172058 55 0 0.0 4.3 0.03 0.04 0.04 84 1018.7
20260504171557 55 0 0.0 4.3 0.03 0.03 0.03 83 1018.7
20260504171057 55 283 0.0 4.3 0.02 0.03 0.03 83 1018.7
20260504170558 56 0 0.0 3.5 0.02 0.03 0.03 82 1018.7
20260504151059 58 0 0.0 0.0 0.00 0.00 0.00 79 1018.3
20260504150558 58 0 0.0 0.0 0.00 0.00 0.00 78 1018.3
20260504141057 58 0 0.0 5.2 0.00 0.00 0.00 75 1018.6
20260504140557 58 310 0.0 6.1 0.00 0.00 0.00 75 1018.6
20260504130559 59 0 0.9 3.5 0.00 0.00 0.00 72 1018.9
20260504120108 59 0 0.0 0.0 0.00 0.00 0.00 70 1019.4
20260504110557 60 0 0.0 0.0 0.00 0.00 0.00 69 1019.8